Time,TemperatureF,DewpointF,PressureIn,WindDirection,WindDirectionDegrees,WindSpeedMPH,WindSpeedGustMPH,Humidity,HourlyPrecipIn,Conditions,Clouds,dailyrainin,SoftwareType,DateUTC
2013-07-02 00:01:00,71.0,61.0,30.01,North,349,0.0,-999.0,71,-99.99,,,-99.99,,2013-07-02 07:01:00,
2013-07-02 00:11:00,71.0,62.0,30.01,NE,50,1.0,-999.0,73,-99.99,,,-99.99,,2013-07-02 07:11:00,
2013-07-02 00:22:00,71.0,62.0,30.02,NE,50,1.0,-999.0,73,-99.99,,,-99.99,,2013-07-02 07:22:00,
2013-07-02 00:33:00,70.0,61.0,30.02,NE,45,1.0,-999.0,74,-99.99,,,-99.99,,2013-07-02 07:33:00,
2013-07-02 00:44:00,70.0,61.0,30.03,NE,37,0.0,-999.0,73,-99.99,,,-99.99,,2013-07-02 07:44:00,
2013-07-02 00:52:00,70.0,61.0,30.03,North,355,0.0,-999.0,74,-99.99,,,-99.99,,2013-07-02 07:52:00,
2013-07-02 01:02:00,69.0,60.0,30.03,North,355,0.0,-999.0,74,-99.99,,,-99.99,,2013-07-02 08:02:00,
2013-07-02 01:11:00,69.0,60.0,30.03,North,355,0.0,-999.0,74,-99.99,,,-99.99,,2013-07-02 08:11:00,
2013-07-02 01:22:00,69.0,61.0,30.04,NE,37,0.0,-999.0,75,-99.99,,,-99.99,,2013-07-02 08:22:00,
2013-07-02 01:33:00,69.0,61.0,30.04,NNE,19,0.0,-999.0,75,-99.99,,,-99.99,,2013-07-02 08:33:00,
2013-07-02 01:44:00,68.0,59.0,30.05,NNE,19,1.0,-999.0,74,-99.99,,,-99.99,,2013-07-02 08:44:00,
2013-07-02 01:52:00,68.0,60.0,30.05,NNE,17,1.0,-999.0,75,-99.99,,,-99.99,,2013-07-02 08:52:00,
2013-07-02 02:01:00,68.0,60.0,30.06,NE,41,0.0,-999.0,75,-99.99,,,-99.99,,2013-07-02 09:01:00,
2013-07-02 02:11:00,67.0,59.0,30.06,ENE,78,0.0,-999.0,76,-99.99,,,-99.99,,2013-07-02 09:11:00,
2013-07-02 02:22:00,67.0,60.0,30.06,ENE,77,0.0,-999.0,77,-99.99,,,-99.99,,2013-07-02 09:22:00,
2013-07-02 02:33:00,67.0,60.0,30.06,ENE,77,0.0,-999.0,79,-99.99,,,-99.99,,2013-07-02 09:33:00,
2013-07-02 02:43:00,67.0,60.0,30.06,ENE,77,0.0,-999.0,79,-99.99,,,-99.99,,2013-07-02 09:43:00,
2013-07-02 02:52:00,67.0,60.0,30.06,North,360,0.0,-999.0,78,-99.99,,,-99.99,,2013-07-02 09:52:00,
2013-07-02 03:01:00,66.0,59.0,30.06,NNE,16,0.0,-999.0,79,-99.99,,,-99.99,,2013-07-02 10:01:00,
2013-07-02 03:11:00,66.0,59.0,30.07,North,9,0.0,-999.0,79,-99.99,,,-99.99,,2013-07-02 10:11:00,
2013-07-02 03:22:00,66.0,59.0,30.07,North,9,0.0,-999.0,78,-99.99,,,-99.99,,2013-07-02 10:22:00,
2013-07-02 03:33:00,65.0,59.0,30.07,North,9,0.0,-999.0,80,-99.99,,,-99.99,,2013-07-02 10:33:00,
2013-07-02 03:43:00,65.0,59.0,30.07,North,9,0.0,-999.0,81,-99.99,,,-99.99,,2013-07-02 10:43:00,
2013-07-02 03:52:00,64.0,58.0,30.06,North,9,0.0,-999.0,82,-99.99,,,-99.99,,2013-07-02 10:52:00,
2013-07-02 04:01:00,64.0,59.0,30.06,North,9,0.0,-999.0,83,-99.99,,,-99.99,,2013-07-02 11:01:00,
2013-07-02 04:11:00,64.0,59.0,30.06,North,9,0.0,-999.0,83,-99.99,,,-99.99,,2013-07-02 11:11:00,
2013-07-02 04:22:00,64.0,59.0,30.06,North,9,0.0,-999.0,84,-99.99,,,-99.99,,2013-07-02 11:22:00,
2013-07-02 04:33:00,64.0,59.0,30.05,North,9,0.0,-999.0,83,-99.99,,,-99.99,,2013-07-02 11:33:00,
2013-07-02 04:42:00,64.0,59.0,30.05,North,9,0.0,-999.0,83,-99.99,,,-99.99,,2013-07-02 11:42:00,
2013-07-02 04:52:00,64.0,59.0,30.05,North,9,0.0,-999.0,83,-99.99,,,-99.99,,2013-07-02 11:52:00,
2013-07-02 05:01:00,64.0,59.0,30.05,North,9,0.0,-999.0,84,-99.99,,,-99.99,,2013-07-02 12:01:00,
2013-07-02 05:11:00,64.0,59.0,30.06,North,9,0.0,-999.0,83,-99.99,,,-99.99,,2013-07-02 12:11:00,
2013-07-02 05:23:00,63.0,58.0,30.06,North,9,0.0,-999.0,85,-99.99,,,-99.99,,2013-07-02 12:23:00,
2013-07-02 05:33:00,64.0,59.0,30.06,NNE,30,0.0,-999.0,85,-99.99,,,-99.99,,2013-07-02 12:33:00,
2013-07-02 05:43:00,64.0,59.0,30.06,NNE,30,0.0,-999.0,85,-99.99,,,-99.99,,2013-07-02 12:43:00,
2013-07-02 05:52:00,63.0,59.0,30.06,NNE,30,0.0,-999.0,87,-99.99,,,-99.99,,2013-07-02 12:52:00,
2013-07-02 06:01:00,63.0,59.0,30.06,NNE,30,0.0,-999.0,88,-99.99,,,-99.99,,2013-07-02 13:01:00,
2013-07-02 06:11:00,63.0,59.0,30.07,NNE,30,0.0,-999.0,87,-99.99,,,-99.99,,2013-07-02 13:11:00,
2013-07-02 06:21:00,63.0,59.0,30.07,NNE,30,0.0,-999.0,87,-99.99,,,-99.99,,2013-07-02 13:21:00,
2013-07-02 06:43:00,64.0,59.0,30.07,North,9,0.0,-999.0,84,-99.99,,,-99.99,,2013-07-02 13:43:00,
2013-07-02 06:52:00,64.0,59.0,30.08,WNW,301,0.0,-999.0,84,-99.99,,,-99.99,,2013-07-02 13:52:00,
2013-07-02 07:01:00,64.0,57.0,30.08,NW,315,0.0,-999.0,79,-99.99,,,-99.99,,2013-07-02 14:01:00,
2013-07-02 07:11:00,64.0,57.0,30.08,NW,315,0.0,-999.0,78,-99.99,,,-99.99,,2013-07-02 14:11:00,
2013-07-02 07:22:00,64.0,57.0,30.08,NW,320,0.0,-999.0,78,-99.99,,,-99.99,,2013-07-02 14:22:00,
2013-07-02 07:33:00,65.0,58.0,30.09,NW,321,0.0,-999.0,77,-99.99,,,-99.99,,2013-07-02 14:33:00,
2013-07-02 07:43:00,65.0,58.0,30.09,NE,50,0.0,-999.0,77,-99.99,,,-99.99,,2013-07-02 14:43:00,
2013-07-02 07:53:00,65.0,57.0,30.09,NE,46,1.0,-999.0,75,-99.99,,,-99.99,,2013-07-02 14:53:00,
2013-07-02 08:02:00,65.0,57.0,30.10,NNE,13,1.0,-999.0,75,-99.99,,,-99.99,,2013-07-02 15:02:00,
2013-07-02 08:11:00,65.0,57.0,30.10,NNE,16,1.0,-999.0,75,-99.99,,,-99.99,,2013-07-02 15:11:00,
2013-07-02 08:22:00,65.0,57.0,30.11,NNW,342,2.0,-999.0,76,-99.99,,,-99.99,,2013-07-02 15:22:00,
2013-07-02 08:33:00,65.0,57.0,30.11,NE,34,2.0,-999.0,76,-99.99,,,-99.99,,2013-07-02 15:33:00,
2013-07-02 08:44:00,65.0,57.0,30.11,NE,34,2.0,-999.0,76,-99.99,,,-99.99,,2013-07-02 15:44:00,
2013-07-02 08:53:00,66.0,58.0,30.10,NNE,33,2.0,-999.0,76,-99.99,,,-99.99,,2013-07-02 15:53:00,
2013-07-02 09:01:00,66.0,58.0,30.10,ENE,61,2.0,-999.0,76,-99.99,,,-99.99,,2013-07-02 16:01:00,
2013-07-02 09:11:00,66.0,58.0,30.10,NE,53,2.0,-999.0,75,-99.99,,,-99.99,,2013-07-02 16:11:00,
2013-07-02 09:21:00,67.0,58.0,30.10,North,10,2.0,-999.0,74,-99.99,,,-99.99,,2013-07-02 16:21:00,
2013-07-02 09:43:00,67.0,58.0,30.10,NNW,348,2.0,-999.0,73,-99.99,,,-99.99,,2013-07-02 16:43:00,
2013-07-02 09:52:00,67.0,58.0,30.10,NE,38,2.0,-999.0,74,-99.99,,,-99.99,,2013-07-02 16:52:00,
2013-07-02 10:02:00,68.0,59.0,30.09,NNE,15,2.0,-999.0,74,-99.99,,,-99.99,,2013-07-02 17:02:00,
2013-07-02 10:43:00,69.0,60.0,30.09,North,355,1.0,-999.0,74,-99.99,,,-99.99,,2013-07-02 17:43:00,
2013-07-02 10:53:00,70.0,61.0,30.09,North,355,1.0,-999.0,73,-99.99,,,-99.99,,2013-07-02 17:53:00,
2013-07-02 11:01:00,70.0,61.0,30.08,ENE,65,1.0,-999.0,73,-99.99,,,-99.99,,2013-07-02 18:01:00,
2013-07-02 11:11:00,71.0,62.0,30.09,NE,49,2.0,-999.0,73,-99.99,,,-99.99,,2013-07-02 18:11:00,
2013-07-02 11:22:00,71.0,61.0,30.09,NNE,31,1.0,-999.0,70,-99.99,,,-99.99,,2013-07-02 18:22:00,
2013-07-02 11:34:00,73.0,63.0,30.09,ENE,61,1.0,-999.0,71,-99.99,,,-99.99,,2013-07-02 18:34:00,
2013-07-02 11:43:00,74.0,63.0,30.09,East,86,0.0,-999.0,68,-99.99,,,-99.99,,2013-07-02 18:43:00,
2013-07-02 11:53:00,75.0,64.0,30.09,SE,136,0.0,-999.0,68,-99.99,,,-99.99,,2013-07-02 18:53:00,
2013-07-02 12:01:00,74.0,63.0,30.09,SE,136,0.0,-999.0,68,-99.99,,,-99.99,,2013-07-02 19:01:00,
2013-07-02 12:11:00,74.0,62.0,30.09,SSE,157,0.0,-999.0,67,-99.99,,,-99.99,,2013-07-02 19:11:00,
2013-07-02 12:22:00,76.0,65.0,30.09,SSE,155,0.0,-999.0,68,-99.99,,,-99.99,,2013-07-02 19:22:00,
2013-07-02 12:33:00,75.0,64.0,30.09,SE,131,0.0,-999.0,68,-99.99,,,-99.99,,2013-07-02 19:33:00,
2013-07-02 12:43:00,75.0,64.0,30.09,SE,131,0.0,-999.0,68,-99.99,,,-99.99,,2013-07-02 19:43:00,
2013-07-02 12:53:00,76.0,64.0,30.09,SSE,158,0.0,-999.0,66,-99.99,,,-99.99,,2013-07-02 19:53:00,
2013-07-02 13:01:00,77.0,64.0,30.09,SSE,159,0.0,-999.0,65,-99.99,,,-99.99,,2013-07-02 20:01:00,
2013-07-02 13:11:00,78.0,65.0,30.09,SE,143,0.0,-999.0,64,-99.99,,,-99.99,,2013-07-02 20:11:00,
2013-07-02 13:22:00,77.0,65.0,30.09,SE,138,0.0,-999.0,67,-99.99,,,-99.99,,2013-07-02 20:22:00,
2013-07-02 13:33:00,77.0,64.0,30.09,SSE,167,0.0,-999.0,65,-99.99,,,-99.99,,2013-07-02 20:33:00,
2013-07-02 13:43:00,78.0,64.0,30.09,SW,232,0.0,-999.0,63,-99.99,,,-99.99,,2013-07-02 20:43:00,
2013-07-02 13:52:00,77.0,64.0,30.09,SSE,153,1.0,-999.0,64,-99.99,,,-99.99,,2013-07-02 20:52:00,
2013-07-02 14:01:00,78.0,63.0,30.09,SSE,154,0.0,-999.0,61,-99.99,,,-99.99,,2013-07-02 21:01:00,
2013-07-02 14:11:00,77.0,63.0,30.10,ENE,64,1.0,-999.0,62,-99.99,,,-99.99,,2013-07-02 21:11:00,
2013-07-02 14:22:00,77.0,56.0,30.10,NNE,27,3.0,-999.0,49,-99.99,,,-99.99,,2013-07-02 21:22:00,
2013-07-02 14:33:00,77.0,55.0,30.10,NE,42,3.0,-999.0,47,-99.99,,,-99.99,,2013-07-02 21:33:00,
2013-07-02 14:43:00,77.0,56.0,30.10,NE,48,4.0,-999.0,48,-99.99,,,-99.99,,2013-07-02 21:43:00,
2013-07-02 14:52:00,76.0,55.0,30.11,ENE,65,3.0,-999.0,48,-99.99,,,-99.99,,2013-07-02 21:52:00,
2013-07-02 15:01:00,76.0,57.0,30.10,East,85,4.0,-999.0,51,-99.99,,,-99.99,,2013-07-02 22:01:00,
2013-07-02 15:11:00,77.0,55.0,30.10,NNE,28,2.0,-999.0,47,-99.99,,,-99.99,,2013-07-02 22:11:00,
2013-07-02 15:22:00,77.0,55.0,30.09,NE,34,2.0,-999.0,46,-99.99,,,-99.99,,2013-07-02 22:22:00,
2013-07-02 15:33:00,78.0,55.0,30.09,NNE,23,1.0,-999.0,45,-99.99,,,-99.99,,2013-07-02 22:33:00,
2013-07-02 15:43:00,79.0,55.0,30.09,NNE,13,1.0,-999.0,44,-99.99,,,-99.99,,2013-07-02 22:43:00,
2013-07-02 15:53:00,79.0,56.0,30.09,ENE,61,1.0,-999.0,46,-99.99,,,-99.99,,2013-07-02 22:53:00,
2013-07-02 16:01:00,79.0,58.0,30.08,NE,53,1.0,-999.0,49,-99.99,,,-99.99,,2013-07-02 23:01:00,
2013-07-02 16:11:00,79.0,58.0,30.08,NE,34,1.0,-999.0,49,-99.99,,,-99.99,,2013-07-02 23:11:00,
2013-07-02 16:22:00,79.0,59.0,30.08,North,9,2.0,-999.0,50,-99.99,,,-99.99,,2013-07-02 23:22:00,
2013-07-02 16:33:00,78.0,58.0,30.08,NE,46,3.0,-999.0,51,-99.99,,,-99.99,,2013-07-02 23:33:00,
2013-07-02 16:43:00,78.0,58.0,30.08,NE,38,2.0,-999.0,51,-99.99,,,-99.99,,2013-07-02 23:43:00,
2013-07-02 16:52:00,77.0,60.0,30.08,NNW,338,4.0,-999.0,55,-99.99,,,-99.99,,2013-07-02 23:52:00,
2013-07-02 17:01:00,77.0,58.0,30.08,North,360,3.0,-999.0,52,-99.99,,,-99.99,,2013-07-03 00:01:00,
2013-07-02 17:11:00,77.0,57.0,30.08,ENE,75,2.0,-999.0,50,-99.99,,,-99.99,,2013-07-03 00:11:00,
2013-07-02 17:22:00,77.0,57.0,30.07,North,5,2.0,-999.0,51,-99.99,,,-99.99,,2013-07-03 00:22:00,
2013-07-02 17:33:00,77.0,59.0,30.07,ENE,65,2.0,-999.0,53,-99.99,,,-99.99,,2013-07-03 00:33:00,
2013-07-02 17:44:00,77.0,59.0,30.07,NE,51,3.0,-999.0,54,-99.99,,,-99.99,,2013-07-03 00:44:00,
2013-07-02 17:52:00,77.0,59.0,30.07,NE,51,3.0,-999.0,54,-99.99,,,-99.99,,2013-07-03 00:52:00,
2013-07-02 18:01:00,76.0,58.0,30.07,NE,51,3.0,-999.0,53,-99.99,,,-99.99,,2013-07-03 01:01:00,
2013-07-02 18:11:00,76.0,57.0,30.07,NNE,31,3.0,-999.0,51,-99.99,,,-99.99,,2013-07-03 01:11:00,
2013-07-02 18:33:00,77.0,55.0,30.06,NE,53,3.0,-999.0,47,-99.99,,,-99.99,,2013-07-03 01:33:00,
2013-07-02 18:42:00,77.0,55.0,30.06,East,86,3.0,-999.0,47,-99.99,,,-99.99,,2013-07-03 01:42:00,
2013-07-02 18:52:00,77.0,56.0,30.06,NE,49,2.0,-999.0,48,-99.99,,,-99.99,,2013-07-03 01:52:00,
2013-07-02 19:12:00,77.0,57.0,30.05,NE,40,3.0,-999.0,50,-99.99,,,-99.99,,2013-07-03 02:12:00,
2013-07-02 19:22:00,77.0,57.0,30.04,NE,44,2.0,-999.0,50,-99.99,,,-99.99,,2013-07-03 02:22:00,
2013-07-02 19:43:00,76.0,57.0,30.04,NE,37,1.0,-999.0,51,-99.99,,,-99.99,,2013-07-03 02:43:00,
2013-07-02 19:56:00,76.0,57.0,30.04,NE,48,1.0,-999.0,52,-99.99,,,-99.99,,2013-07-03 02:56:00,
2013-07-02 20:24:00,75.0,58.0,30.04,ENE,63,0.0,-999.0,55,-99.99,,,-99.99,,2013-07-03 03:24:00,
2013-07-02 20:33:00,74.0,56.0,30.04,NNW,344,1.0,-999.0,54,-99.99,,,-99.99,,2013-07-03 03:33:00,
2013-07-02 20:43:00,74.0,56.0,30.04,NNE,26,1.0,-999.0,53,-99.99,,,-99.99,,2013-07-03 03:43:00,
2013-07-02 20:52:00,73.0,55.0,30.04,NNW,344,1.0,-999.0,54,-99.99,,,-99.99,,2013-07-03 03:52:00,
2013-07-02 21:01:00,73.0,56.0,30.04,NNE,29,0.0,-999.0,55,-99.99,,,-99.99,,2013-07-03 04:01:00,
2013-07-02 21:11:00,72.0,55.0,30.03,NNE,24,0.0,-999.0,56,-99.99,,,-99.99,,2013-07-03 04:11:00,
2013-07-02 21:22:00,72.0,55.0,30.04,NE,51,1.0,-999.0,55,-99.99,,,-99.99,,2013-07-03 04:22:00,
2013-07-02 21:33:00,72.0,55.0,30.04,NE,51,1.0,-999.0,55,-99.99,,,-99.99,,2013-07-03 04:33:00,
2013-07-02 21:43:00,71.0,55.0,30.04,NNE,13,1.0,-999.0,57,-99.99,,,-99.99,,2013-07-03 04:43:00,
2013-07-02 21:52:00,71.0,55.0,30.05,NNE,26,1.0,-999.0,58,-99.99,,,-99.99,,2013-07-03 04:52:00,
2013-07-02 22:01:00,70.0,55.0,30.05,NNE,17,1.0,-999.0,58,-99.99,,,-99.99,,2013-07-03 05:01:00,
2013-07-02 22:11:00,70.0,55.0,30.05,NNW,327,1.0,-999.0,59,-99.99,,,-99.99,,2013-07-03 05:11:00,
2013-07-02 22:23:00,69.0,55.0,30.05,ENE,70,1.0,-999.0,60,-99.99,,,-99.99,,2013-07-03 05:23:00,
2013-07-02 22:33:00,69.0,55.0,30.05,NNW,347,2.0,-999.0,61,-99.99,,,-99.99,,2013-07-03 05:33:00,
2013-07-02 22:43:00,68.0,55.0,30.06,North,11,1.0,-999.0,63,-99.99,,,-99.99,,2013-07-03 05:43:00,
2013-07-02 22:52:00,67.0,54.0,30.06,ENE,66,1.0,-999.0,64,-99.99,,,-99.99,,2013-07-03 05:52:00,
2013-07-02 23:01:00,67.0,54.0,30.07,NE,37,1.0,-999.0,64,-99.99,,,-99.99,,2013-07-03 06:01:00,
2013-07-02 23:11:00,67.0,55.0,30.07,ENE,74,1.0,-999.0,65,-99.99,,,-99.99,,2013-07-03 06:11:00,
2013-07-02 23:21:00,66.0,54.0,30.08,North,355,0.0,-999.0,66,-99.99,,,-99.99,,2013-07-03 06:21:00,
2013-07-02 23:34:00,66.0,54.0,30.08,NNE,19,1.0,-999.0,66,-99.99,,,-99.99,,2013-07-03 06:34:00,
2013-07-02 23:43:00,65.0,53.0,30.08,NE,35,1.0,-999.0,65,-99.99,,,-99.99,,2013-07-03 06:43:00,